一网星座-0444星 (ONEWEB-0444 )

导读

ONEWEB-0444是英国一网(OneWeb)星座的低轨通信卫星,于2022年2月10日发射入轨。卫星运行于1200公里近地轨道,单星重约147.5公斤,设计寿命5年,配备Ku/Ka波段天线,单星通信吞吐量可达7.5Gbps,具备高速低时延通信能力。 作为OneWeb一期全球互联网星座的组网卫星,它为偏远地区网络覆盖、航空海事联网等场景提供服务,寿命结束后会主动离轨,符合空间碎片防控规范,助力构建全球泛在低轨卫星互联网。

基本信息
目录编号:
51638
目录名称:
ONEWEB-0444
国际标识:
2022-012S
轨道中心:
EARTH
卫星名称:
一网星座-0444星
卫星全名:
一网星座-0444星 (ONEWEB-0444 )
卫星状态:
在轨 (已飞行1678 天)
发射日期:
2022-02-10 UTC
国别 :
英国 (GB)
星等 :
--
该卫星已列入 空间交会检测服务 Space Conjunction Data Service (SCDS) ,当前飞行风险评估等级: 无高风险
轨道信息
数据来源 国际轨道数据 AOE轨道数据
星历时间 2026-09-15T21:55:21+0800
9小时前
查看轨道信息
2026-09-15T12:00:00+0800
19小时前
查看轨道信息
半长轴 7599.868km 7599.857km
偏心率 0.0001911 0.0001877
轨道倾角 87.890° 87.891°
近地点辐角 99.330° 107.122°
升交点赤经 18.270° 18.351°
平近点角 260.804° 103.817°
近地点 1220.278km 1220.293km
远地点 1223.184km 1223.147km
周期 109.893分钟 109.892分钟
每日圈数 13.103693 13.103722
详细信息
平衡模式:
三轴稳定
覆盖范围:
全球
运营商:
一网卫星公司
运营商所在国:
英国
制造商(研发单位):
一网卫星公司
制造商所在国:
英国
使用方式:
暂无
卫星简介
OneWeb卫星网络由648颗重约125公斤的微型卫星组成,运行在1200公里的轨道上。 每颗卫星都能够提供至少每秒8千兆位的吞吐量,以使用其高吞吐量的Ku频段有效载荷为家庭和移动平台提供互联网接入。该卫星仍在工作。
2D轨道图
3D轨道图
轨道高度分析图
轨道倾角分析图
轨道综合分析图
查看轨道综合分析图
与全量物体交会距离演化趋势 订阅飞行安全评估服务
与全量物体交会风险概率演化趋势 订阅飞行安全评估服务